Time,TemperatureF,DewpointF,PressureIn,WindDirection,WindDirectionDegrees,WindSpeedMPH,WindSpeedGustMPH,Humidity,HourlyPrecipIn,Conditions,Clouds,dailyrainin,SoftwareType,DateUTC
2013-09-22 00:01:00,52.7,48.1,29.59,ENE,60,0.5,0.9,84,0.00,,,0.00,WUHU216HW,2013-09-22 04:01:00,
2013-09-22 00:02:00,52.7,48.1,29.60,ENE,68,0.2,0.4,84,0.00,,,0.00,WUHU216HW,2013-09-22 04:02:00,
2013-09-22 00:03:00,52.7,48.1,29.60,North,357,1.0,1.3,84,0.00,,,0.00,WUHU216HW,2013-09-22 04:03:00,
2013-09-22 00:04:00,52.7,48.1,29.59,North,356,0.9,1.1,84,0.00,,,0.00,WUHU216HW,2013-09-22 04:04:00,
2013-09-22 00:09:00,52.7,48.1,29.61,NNW,338,0.8,1.8,84,0.00,,,0.00,WUHU216HW,2013-09-22 04:09:00,
2013-09-22 00:10:00,52.6,48.0,29.59,SE,124,0.6,1.1,84,0.00,,,0.00,WUHU216HW,2013-09-22 04:10:00,
2013-09-22 00:15:00,52.6,48.0,29.60,NE,34,1.2,2.0,84,0.00,,,0.00,WUHU216HW,2013-09-22 04:15:00,
2013-09-22 00:20:00,52.6,48.0,29.57,NW,306,1.2,1.8,84,0.00,,,0.00,WUHU216HW,2013-09-22 04:20:00,
2013-09-22 00:25:00,52.6,48.0,29.61,NE,45,0.1,0.4,84,0.00,,,0.00,WUHU216HW,2013-09-22 04:25:00,
2013-09-22 00:30:00,52.4,47.8,29.60,East,93,0.8,0.9,84,0.00,,,0.00,WUHU216HW,2013-09-22 04:30:00,
2013-09-22 00:35:00,52.2,47.3,29.61,NE,34,0.5,2.0,83,0.00,,,0.00,WUHU216HW,2013-09-22 04:35:00,
2013-09-22 00:40:00,52.2,47.6,29.60,East,90,0.2,0.4,84,0.00,,,0.00,WUHU216HW,2013-09-22 04:40:00,
2013-09-22 00:45:00,52.2,47.6,29.62,NE,45,0.6,0.9,84,0.00,,,0.00,WUHU216HW,2013-09-22 04:45:00,
2013-09-22 00:50:00,52.0,47.4,29.61,NNE,13,2.8,3.8,84,0.00,,,0.00,WUHU216HW,2013-09-22 04:50:00,
2013-09-22 00:55:00,52.0,47.4,29.61,NNE,30,0.8,1.3,84,0.00,,,0.00,WUHU216HW,2013-09-22 04:55:00,
2013-09-22 01:00:00,52.0,47.4,29.61,North,0,0.3,0.4,84,0.00,,,0.00,WUHU216HW,2013-09-22 05:00:00,
2013-09-22 01:05:00,51.8,47.2,29.62,NE,45,0.3,0.4,84,0.00,,,0.00,WUHU216HW,2013-09-22 05:05:00,
2013-09-22 01:10:00,51.8,47.2,29.62,NE,45,0.6,0.7,84,0.00,,,0.00,WUHU216HW,2013-09-22 05:10:00,
2013-09-22 01:15:00,51.8,47.6,29.61,NNE,17,1.5,2.2,85,0.00,,,0.00,WUHU216HW,2013-09-22 05:15:00,
2013-09-22 01:20:00,51.7,47.5,29.62,North,0,1.3,1.8,85,0.00,,,0.00,WUHU216HW,2013-09-22 05:20:00,
2013-09-22 01:25:00,51.7,47.5,29.63,North,9,1.7,2.9,85,0.00,,,0.00,WUHU216HW,2013-09-22 05:25:00,
2013-09-22 01:30:00,51.7,47.5,29.62,NE,56,1.6,2.2,85,0.00,,,0.00,WUHU216HW,2013-09-22 05:30:00,
2013-09-22 01:35:00,51.7,47.5,29.63,NE,35,0.5,1.1,85,0.00,,,0.00,WUHU216HW,2013-09-22 05:35:00,
2013-09-22 01:40:00,51.7,47.1,29.63,North,11,0.8,1.1,84,0.00,,,0.00,WUHU216HW,2013-09-22 05:40:00,
2013-09-22 01:45:00,51.5,46.6,29.62,NE,35,1.2,1.8,83,0.00,,,0.00,WUHU216HW,2013-09-22 05:45:00,
2013-09-22 01:50:00,51.5,46.6,29.64,SE,142,0.5,1.1,83,0.00,,,0.00,WUHU216HW,2013-09-22 05:50:00,
2013-09-22 01:55:00,51.5,46.6,29.63,ESE,113,0.3,0.7,83,0.00,,,0.00,WUHU216HW,2013-09-22 05:55:00,
2013-09-22 02:00:00,51.5,46.6,29.63,NE,45,0.2,0.4,83,0.00,,,0.00,WUHU216HW,2013-09-22 06:00:00,
2013-09-22 02:05:00,51.3,46.4,29.63,NNE,23,0.1,0.4,83,0.00,,,0.00,WUHU216HW,2013-09-22 06:05:00,
2013-09-22 02:10:00,51.1,46.2,29.63,North,356,0.5,0.7,83,0.00,,,0.00,WUHU216HW,2013-09-22 06:10:00,
2013-09-22 02:15:00,51.1,46.5,29.64,North,1,1.5,2.7,84,0.00,,,0.00,WUHU216HW,2013-09-22 06:15:00,
2013-09-22 02:20:00,51.1,46.5,29.62,NE,44,0.6,1.1,84,0.00,,,0.00,WUHU216HW,2013-09-22 06:20:00,
2013-09-22 02:25:00,50.9,46.3,29.64,NNE,19,0.8,1.1,84,0.00,,,0.00,WUHU216HW,2013-09-22 06:25:00,
2013-09-22 02:31:00,50.9,46.3,29.62,NNE,18,0.7,1.8,84,0.00,,,0.00,WUHU216HW,2013-09-22 06:31:00,
2013-09-22 02:36:00,50.9,46.3,29.64,NNE,29,0.5,1.1,84,0.00,,,0.00,WUHU216HW,2013-09-22 06:36:00,
2013-09-22 02:41:00,50.8,46.2,29.64,NE,53,1.0,1.3,84,0.00,,,0.00,WUHU216HW,2013-09-22 06:41:00,
2013-09-22 02:46:00,50.8,46.2,29.64,NW,315,0.2,0.4,84,0.00,,,0.00,WUHU216HW,2013-09-22 06:46:00,
2013-09-22 02:51:00,50.8,46.2,29.64,NNE,23,0.3,0.9,84,0.00,,,0.00,WUHU216HW,2013-09-22 06:51:00,
2013-09-22 02:56:00,50.8,46.2,29.62,NNE,23,0.1,0.4,84,0.00,,,0.00,WUHU216HW,2013-09-22 06:56:00,
2013-09-22 03:01:00,50.8,46.2,29.64,North,0,0.0,0.0,84,0.00,,,0.00,WUHU216HW,2013-09-22 07:01:00,
2013-09-22 03:06:00,50.6,46.4,29.63,North,0,0.0,0.0,85,0.00,,,0.00,WUHU216HW,2013-09-22 07:06:00,
2013-09-22 03:11:00,50.4,46.2,29.64,North,0,0.0,0.0,85,0.00,,,0.00,WUHU216HW,2013-09-22 07:11:00,
2013-09-22 03:16:00,50.4,46.5,29.63,ENE,69,0.3,2.5,87,0.00,,,0.00,WUHU216HW,2013-09-22 07:16:00,
2013-09-22 03:21:00,50.4,46.5,29.64,NE,45,0.2,0.4,87,0.00,,,0.00,WUHU216HW,2013-09-22 07:21:00,
2013-09-22 03:26:00,50.2,46.3,29.63,NE,45,0.1,0.2,87,0.00,,,0.00,WUHU216HW,2013-09-22 07:26:00,
2013-09-22 03:31:00,50.2,46.3,29.63,SW,228,0.4,0.9,87,0.00,,,0.00,WUHU216HW,2013-09-22 07:31:00,
2013-09-22 03:36:00,50.2,46.7,29.64,North,0,0.3,1.3,88,0.00,,,0.00,WUHU216HW,2013-09-22 07:36:00,
2013-09-22 03:41:00,50.2,46.7,29.63,NNE,17,1.7,2.9,88,0.00,,,0.00,WUHU216HW,2013-09-22 07:41:00,
2013-09-22 03:46:00,50.0,46.1,29.64,North,356,4.3,6.9,87,0.00,,,0.00,WUHU216HW,2013-09-22 07:46:00,
2013-09-22 03:51:00,50.0,46.1,29.63,NE,36,0.8,1.1,87,0.00,,,0.00,WUHU216HW,2013-09-22 07:51:00,
2013-09-22 03:56:00,50.0,46.1,29.64,NNW,347,1.5,2.5,87,0.00,,,0.00,WUHU216HW,2013-09-22 07:56:00,
2013-09-22 04:01:00,50.0,46.1,29.63,NNE,26,1.7,2.9,87,0.00,,,0.00,WUHU216HW,2013-09-22 08:01:00,
2013-09-22 04:06:00,50.0,45.8,29.64,NNE,12,3.1,4.0,85,0.00,,,0.00,WUHU216HW,2013-09-22 08:06:00,
2013-09-22 04:11:00,49.9,45.7,29.63,North,357,1.0,1.1,85,0.00,,,0.00,WUHU216HW,2013-09-22 08:11:00,
2013-09-22 04:16:00,49.9,45.7,29.65,NNW,345,2.9,4.9,85,0.00,,,0.00,WUHU216HW,2013-09-22 08:16:00,
2013-09-22 04:21:00,49.7,45.8,29.64,NE,35,2.6,4.9,87,0.00,,,0.00,WUHU216HW,2013-09-22 08:21:00,
2013-09-22 04:26:00,49.7,45.8,29.65,NNE,12,1.2,2.2,87,0.00,,,0.00,WUHU216HW,2013-09-22 08:26:00,
2013-09-22 04:31:00,49.5,45.6,29.64,NNE,12,0.8,1.3,87,0.00,,,0.00,WUHU216HW,2013-09-22 08:31:00,
2013-09-22 04:36:00,49.3,45.8,29.65,NE,45,0.6,1.1,88,0.00,,,0.00,WUHU216HW,2013-09-22 08:36:00,
2013-09-22 04:42:00,49.3,45.8,29.64,SE,130,0.5,0.7,88,0.00,,,0.00,WUHU216HW,2013-09-22 08:42:00,
2013-09-22 04:47:00,49.3,45.8,29.64,NNE,27,2.2,3.4,88,0.00,,,0.00,WUHU216HW,2013-09-22 08:47:00,
2013-09-22 04:52:00,49.1,45.6,29.65,North,4,1.5,1.8,88,0.00,,,0.00,WUHU216HW,2013-09-22 08:52:00,
2013-09-22 04:57:00,49.1,45.6,29.65,ENE,68,0.5,0.7,88,0.00,,,0.00,WUHU216HW,2013-09-22 08:57:00,
2013-09-22 05:02:00,49.1,45.6,29.65,North,10,0.6,0.7,88,0.00,,,0.00,WUHU216HW,2013-09-22 09:02:00,
2013-09-22 05:07:00,49.0,45.8,29.65,North,349,2.1,3.1,89,0.00,,,0.00,WUHU216HW,2013-09-22 09:07:00,
2013-09-22 05:12:00,49.0,45.8,29.65,ESE,113,0.7,1.1,89,0.00,,,0.00,WUHU216HW,2013-09-22 09:12:00,
2013-09-22 05:17:00,49.0,45.8,29.66,NNE,28,0.5,0.7,89,0.00,,,0.00,WUHU216HW,2013-09-22 09:17:00,
2013-09-22 05:22:00,49.0,45.8,29.64,NE,45,0.5,0.7,89,0.00,,,0.00,WUHU216HW,2013-09-22 09:22:00,
2013-09-22 05:27:00,48.8,45.6,29.66,NE,45,0.2,0.4,89,0.00,,,0.00,WUHU216HW,2013-09-22 09:27:00,
2013-09-22 05:32:00,48.8,45.6,29.64,North,0,0.0,0.0,89,0.00,,,0.00,WUHU216HW,2013-09-22 09:32:00,
2013-09-22 05:37:00,48.6,45.4,29.66,North,0,0.0,0.0,89,0.00,,,0.00,WUHU216HW,2013-09-22 09:37:00,
2013-09-22 05:42:00,48.6,45.7,29.65,ENE,63,1.1,1.1,90,0.00,,,0.00,WUHU216HW,2013-09-22 09:42:00,
2013-09-22 05:47:00,48.6,45.7,29.67,NNE,23,0.4,1.1,90,0.00,,,0.00,WUHU216HW,2013-09-22 09:47:00,
2013-09-22 05:52:00,48.6,45.7,29.65,NE,40,1.2,1.8,90,0.00,,,0.00,WUHU216HW,2013-09-22 09:52:00,
2013-09-22 05:57:00,48.4,45.5,29.66,NNE,13,0.6,0.7,90,0.00,,,0.00,WUHU216HW,2013-09-22 09:57:00,
2013-09-22 06:02:00,48.4,45.5,29.66,NNW,338,0.2,0.4,90,0.00,,,0.00,WUHU216HW,2013-09-22 10:02:00,
2013-09-22 06:07:00,48.4,45.5,29.66,North,0,0.0,0.0,90,0.00,,,0.00,WUHU216HW,2013-09-22 10:07:00,
2013-09-22 06:12:00,48.2,45.3,29.66,North,0,0.1,0.4,90,0.00,,,0.00,WUHU216HW,2013-09-22 10:12:00,
2013-09-22 06:17:00,48.1,45.2,29.65,NNE,23,0.4,0.4,90,0.00,,,0.00,WUHU216HW,2013-09-22 10:17:00,
2013-09-22 06:22:00,47.9,45.0,29.66,NNE,12,3.5,5.1,90,0.00,,,0.00,WUHU216HW,2013-09-22 10:22:00,
2013-09-22 06:27:00,47.7,44.8,29.65,North,0,0.0,0.0,90,0.00,,,0.00,WUHU216HW,2013-09-22 10:27:00,
2013-09-22 06:32:00,47.5,44.7,29.67,NNE,33,1.1,2.0,90,0.00,,,0.00,WUHU216HW,2013-09-22 10:32:00,
2013-09-22 06:37:00,47.2,44.4,29.65,SE,135,0.2,0.4,90,0.00,,,0.00,WUHU216HW,2013-09-22 10:37:00,
2013-09-22 06:42:00,46.8,44.0,29.67,North,0,0.0,0.0,90,0.00,,,0.00,WUHU216HW,2013-09-22 10:42:00,
2013-09-22 06:47:00,46.4,43.6,29.65,North,0,0.0,0.0,90,0.00,,,0.00,WUHU216HW,2013-09-22 10:47:00,
2013-09-22 06:52:00,45.7,42.9,29.67,SE,135,0.4,0.4,90,0.00,,,0.00,WUHU216HW,2013-09-22 10:52:00,
2013-09-22 06:57:00,45.4,42.6,29.65,WSW,248,0.2,0.4,90,0.00,,,0.00,WUHU216HW,2013-09-22 10:57:00,
2013-09-22 07:02:00,44.8,42.3,29.67,North,0,0.0,0.0,91,0.00,,,0.00,WUHU216HW,2013-09-22 11:02:00,
2013-09-22 07:07:00,44.3,41.8,29.67,North,0,0.0,0.0,91,0.00,,,0.00,WUHU216HW,2013-09-22 11:07:00,
2013-09-22 07:12:00,43.9,41.4,29.67,North,0,0.0,0.0,91,0.00,,,0.00,WUHU216HW,2013-09-22 11:12:00,
2013-09-22 07:17:00,43.6,41.4,29.67,North,0,0.0,0.0,92,0.00,,,0.00,WUHU216HW,2013-09-22 11:17:00,
2013-09-22 07:22:00,43.2,41.0,29.66,North,0,0.0,0.0,92,0.00,,,0.00,WUHU216HW,2013-09-22 11:22:00,
2013-09-22 07:27:00,42.8,41.0,29.68,East,93,0.2,0.4,93,0.00,,,0.00,WUHU216HW,2013-09-22 11:27:00,
2013-09-22 07:32:00,42.8,41.0,29.67,North,0,0.0,0.0,93,0.00,,,0.00,WUHU216HW,2013-09-22 11:32:00,
2013-09-22 07:37:00,42.7,41.2,29.69,North,0,0.0,0.0,94,0.00,,,0.00,WUHU216HW,2013-09-22 11:37:00,
2013-09-22 07:42:00,42.7,41.2,29.67,North,0,0.0,0.0,94,0.00,,,0.00,WUHU216HW,2013-09-22 11:42:00,
2013-09-22 07:48:00,42.8,41.6,29.69,North,0,0.0,0.0,96,0.00,,,0.00,WUHU216HW,2013-09-22 11:48:00,
2013-09-22 07:53:00,43.0,41.8,29.69,ENE,68,0.2,0.4,96,0.00,,,0.00,WUHU216HW,2013-09-22 11:53:00,
2013-09-22 07:58:00,43.6,42.4,29.67,North,0,0.0,0.0,96,0.00,,,0.00,WUHU216HW,2013-09-22 11:58:00,
2013-09-22 08:03:00,44.1,42.9,29.69,ENE,68,0.2,0.4,96,0.00,,,0.00,WUHU216HW,2013-09-22 12:03:00,
2013-09-22 08:08:00,44.6,43.4,29.67,NNW,338,0.0,0.2,96,0.00,,,0.00,WUHU216HW,2013-09-22 12:08:00,
2013-09-22 08:13:00,45.0,43.8,29.69,ENE,69,0.3,0.7,96,0.00,,,0.00,WUHU216HW,2013-09-22 12:13:00,
2013-09-22 08:18:00,45.4,44.2,29.67,NNW,338,0.1,0.2,96,0.00,,,0.00,WUHU216HW,2013-09-22 12:18:00,
2013-09-22 08:23:00,45.7,44.5,29.69,WSW,248,0.0,0.2,96,0.00,,,0.00,WUHU216HW,2013-09-22 12:23:00,
2013-09-22 08:28:00,45.9,44.7,29.68,NE,45,0.1,0.4,96,0.00,,,0.00,WUHU216HW,2013-09-22 12:28:00,
2013-09-22 08:33:00,46.3,45.1,29.69,North,349,1.0,1.6,96,0.00,,,0.00,WUHU216HW,2013-09-22 12:33:00,
2013-09-22 08:38:00,46.6,45.4,29.69,NNE,15,1.5,2.2,96,0.00,,,0.00,WUHU216HW,2013-09-22 12:38:00,
2013-09-22 08:43:00,47.0,45.4,29.69,NNE,23,0.1,0.2,94,0.00,,,0.00,WUHU216HW,2013-09-22 12:43:00,
2013-09-22 08:48:00,47.3,45.4,29.68,NNW,343,0.9,1.3,93,0.00,,,0.00,WUHU216HW,2013-09-22 12:48:00,
2013-09-22 08:53:00,47.9,46.0,29.69,North,3,1.1,2.2,93,0.00,,,0.00,WUHU216HW,2013-09-22 12:53:00,
2013-09-22 08:58:00,48.2,46.3,29.69,SSE,161,0.3,0.9,93,0.00,,,0.00,WUHU216HW,2013-09-22 12:58:00,
2013-09-22 09:03:00,48.6,46.7,29.60,SW,215,0.2,0.4,93,0.00,,,0.00,WUHU216HW,2013-09-22 13:03:00,
2013-09-22 09:08:00,49.1,46.9,29.70,WNW,291,1.7,2.9,92,0.00,,,0.00,WUHU216HW,2013-09-22 13:08:00,
2013-09-22 09:13:00,49.7,47.2,29.68,NNE,19,2.9,4.0,91,0.00,,,0.00,WUHU216HW,2013-09-22 13:13:00,
2013-09-22 09:19:00,50.0,47.1,29.70,East,90,0.7,1.3,90,0.00,,,0.00,WUHU216HW,2013-09-22 13:19:00,
2013-09-22 09:24:00,50.4,47.5,29.68,NNE,17,0.7,2.5,90,0.00,,,0.00,WUHU216HW,2013-09-22 13:24:00,
2013-09-22 09:29:00,50.8,47.9,29.69,NNE,25,0.6,0.7,90,0.00,,,0.00,WUHU216HW,2013-09-22 13:29:00,
2013-09-22 09:34:00,50.8,47.6,29.71,NNE,12,0.6,0.9,89,0.00,,,0.00,WUHU216HW,2013-09-22 13:34:00,
2013-09-22 09:39:00,50.6,47.1,29.66,West,281,0.3,0.7,88,0.00,,,0.00,WUHU216HW,2013-09-22 13:39:00,
2013-09-22 09:44:00,50.4,46.9,29.64,South,180,0.0,2.2,88,0.00,,,0.00,WUHU216HW,2013-09-22 13:44:00,
2013-09-22 09:49:00,50.4,46.9,29.64,South,180,0.0,0.7,88,0.00,,,0.00,WUHU216HW,2013-09-22 13:49:00,
2013-09-22 13:01:00,56.5,47.3,29.86,NNW,328,1.0,1.3,71,0.00,,,0.00,WUHU216HW,2013-09-22 17:01:00,
2013-09-22 13:06:00,56.7,46.6,29.78,NNE,29,3.1,3.4,69,0.00,,,0.00,WUHU216HW,2013-09-22 17:06:00,
2013-09-22 13:11:00,56.5,46.4,29.76,ENE,64,1.6,1.8,69,0.00,,,0.00,WUHU216HW,2013-09-22 17:11:00,
2013-09-22 13:16:00,57.2,47.5,29.68,WSW,241,1.0,1.3,70,0.00,,,0.00,WUHU216HW,2013-09-22 17:16:00,
2013-09-22 13:21:00,57.6,47.5,29.65,NE,43,4.0,6.3,69,0.00,,,0.00,WUHU216HW,2013-09-22 17:21:00,
2013-09-22 13:26:00,57.4,47.3,29.70,North,6,1.7,2.5,69,0.00,,,0.00,WUHU216HW,2013-09-22 17:26:00,
2013-09-22 13:31:00,58.0,47.4,29.69,ENE,57,1.8,2.7,67,0.00,,,0.00,WUHU216HW,2013-09-22 17:31:00,
2013-09-22 13:36:00,58.1,47.5,29.65,ENE,70,2.3,4.3,67,0.00,,,0.00,WUHU216HW,2013-09-22 17:36:00,
2013-09-22 13:41:00,57.8,46.3,29.64,NNE,25,2.4,3.6,65,0.00,,,0.00,WUHU216HW,2013-09-22 17:41:00,
2013-09-22 13:46:00,57.4,46.4,29.62,ESE,104,1.6,2.2,66,0.00,,,0.00,WUHU216HW,2013-09-22 17:46:00,
2013-09-22 13:51:00,58.0,47.4,29.63,SSW,211,0.5,0.7,67,0.00,,,0.00,WUHU216HW,2013-09-22 17:51:00,
2013-09-22 13:56:00,58.5,47.9,29.63,NE,43,2.2,3.1,67,0.00,,,0.00,WUHU216HW,2013-09-22 17:56:00,
2013-09-22 14:01:00,58.7,47.2,29.72,NE,35,3.8,4.7,65,0.00,,,0.00,WUHU216HW,2013-09-22 18:01:00,
2013-09-22 14:06:00,58.5,47.0,29.71,NNE,27,2.3,4.5,65,0.00,,,0.00,WUHU216HW,2013-09-22 18:06:00,
2013-09-22 14:11:00,58.3,46.8,29.73,North,11,1.4,2.7,65,0.00,,,0.00,WUHU216HW,2013-09-22 18:11:00,
2013-09-22 14:16:00,58.3,47.3,29.69,North,3,1.3,1.6,66,0.00,,,0.00,WUHU216HW,2013-09-22 18:16:00,
2013-09-22 14:21:00,58.5,47.4,29.71,ENE,76,0.9,1.1,66,0.00,,,0.00,WUHU216HW,2013-09-22 18:21:00,
2013-09-22 14:26:00,59.4,48.8,29.64,WSW,256,1.8,2.0,67,0.00,,,0.00,WUHU216HW,2013-09-22 18:26:00,
2013-09-22 14:31:00,59.4,48.8,29.67,South,190,0.8,1.1,67,0.00,,,0.00,WUHU216HW,2013-09-22 18:31:00,
2013-09-22 14:36:00,59.0,47.5,29.69,ENE,75,2.1,2.5,65,0.00,,,0.00,WUHU216HW,2013-09-22 18:36:00,
2013-09-22 14:41:00,59.4,47.9,29.66,NNE,32,1.0,2.0,65,0.00,,,0.00,WUHU216HW,2013-09-22 18:41:00,
2013-09-22 14:47:00,60.1,47.6,29.69,East,84,2.1,2.9,63,0.00,,,0.00,WUHU216HW,2013-09-22 18:47:00,
2013-09-22 14:52:00,60.8,49.2,29.68,WSW,237,2.2,2.5,65,0.00,,,0.00,WUHU216HW,2013-09-22 18:52:00,
2013-09-22 14:57:00,61.2,48.6,29.65,North,355,2.0,2.7,63,0.00,,,0.00,WUHU216HW,2013-09-22 18:57:00,
2013-09-22 15:02:00,60.5,48.4,29.65,SSE,153,1.7,1.8,64,0.00,,,0.00,WUHU216HW,2013-09-22 19:02:00,
2013-09-22 15:07:00,60.1,48.1,29.66,NE,41,2.4,4.3,64,0.00,,,0.00,WUHU216HW,2013-09-22 19:07:00,
2013-09-22 15:12:00,60.7,49.1,29.66,NW,305,2.4,3.8,65,0.00,,,0.00,WUHU216HW,2013-09-22 19:12:00,
2013-09-22 15:17:00,61.4,49.8,29.65,South,185,0.9,1.1,65,0.00,,,0.00,WUHU216HW,2013-09-22 19:17:00,
2013-09-22 15:22:00,61.2,49.1,29.68,NNE,24,1.2,2.5,64,0.00,,,0.00,WUHU216HW,2013-09-22 19:22:00,
2013-09-22 15:27:00,60.5,48.4,29.67,North,0,1.4,1.8,64,0.00,,,0.00,WUHU216HW,2013-09-22 19:27:00,
2013-09-22 15:32:00,59.2,47.7,29.68,NE,41,2.1,2.2,65,0.00,,,0.00,WUHU216HW,2013-09-22 19:32:00,
2013-09-22 15:37:00,59.0,47.9,29.66,North,8,0.5,0.9,66,0.00,,,0.00,WUHU216HW,2013-09-22 19:37:00,
2013-09-22 15:42:00,60.1,49.0,29.68,ESE,102,1.4,2.2,66,0.00,,,0.00,WUHU216HW,2013-09-22 19:42:00,
2013-09-22 15:47:00,60.3,48.7,29.67,WSW,249,1.2,1.6,65,0.00,,,0.00,WUHU216HW,2013-09-22 19:47:00,
2013-09-22 15:52:00,59.9,48.3,29.67,WNW,286,2.4,3.4,65,0.00,,,0.00,WUHU216HW,2013-09-22 19:52:00,
2013-09-22 15:57:00,59.4,48.3,29.66,WSW,242,3.2,3.4,66,0.00,,,0.00,WUHU216HW,2013-09-22 19:57:00,
2013-09-22 16:02:00,59.2,48.1,29.67,NNW,338,0.5,1.1,66,0.00,,,0.00,WUHU216HW,2013-09-22 20:02:00,
2013-09-22 16:07:00,59.2,48.6,29.64,SW,220,1.3,1.6,67,0.00,,,0.00,WUHU216HW,2013-09-22 20:07:00,
2013-09-22 16:13:00,59.4,48.8,29.67,West,277,2.4,3.4,67,0.00,,,0.00,WUHU216HW,2013-09-22 20:13:00,
2013-09-22 16:18:00,59.4,48.8,29.64,WSW,251,1.8,2.2,67,0.00,,,0.00,WUHU216HW,2013-09-22 20:18:00,
2013-09-22 16:23:00,59.4,48.8,29.65,West,263,0.6,1.8,67,0.00,,,0.00,WUHU216HW,2013-09-22 20:23:00,
2013-09-22 16:28:00,59.2,48.6,29.67,NW,317,1.0,1.3,67,0.00,,,0.00,WUHU216HW,2013-09-22 20:28:00,
2013-09-22 16:33:00,58.7,47.6,29.66,East,81,1.1,2.2,66,0.00,,,0.00,WUHU216HW,2013-09-22 20:33:00,
2013-09-22 16:38:00,58.1,47.1,29.66,NE,37,2.6,4.0,66,0.00,,,0.00,WUHU216HW,2013-09-22 20:38:00,
2013-09-22 16:43:00,57.6,46.6,29.65,North,0,0.4,0.4,66,0.00,,,0.00,WUHU216HW,2013-09-22 20:43:00,
2013-09-22 16:48:00,57.4,47.3,29.65,North,4,0.3,1.1,69,0.00,,,0.00,WUHU216HW,2013-09-22 20:48:00,
2013-09-22 16:53:00,57.8,47.7,29.67,East,100,1.2,2.0,69,0.00,,,0.00,WUHU216HW,2013-09-22 20:53:00,
2013-09-22 16:58:00,57.8,47.2,29.67,NE,34,1.4,1.8,67,0.00,,,0.00,WUHU216HW,2013-09-22 20:58:00,
2013-09-22 17:04:00,57.4,46.8,29.69,NNW,343,1.2,1.6,67,0.00,,,0.00,WUHU216HW,2013-09-22 21:04:00,
2013-09-22 17:09:00,57.1,47.0,29.67,WNW,301,1.9,3.4,69,0.00,,,0.00,WUHU216HW,2013-09-22 21:09:00,
2013-09-22 17:14:00,57.6,47.5,29.67,NNW,343,0.8,2.5,69,0.00,,,0.00,WUHU216HW,2013-09-22 21:14:00,
2013-09-22 17:19:00,58.1,47.9,29.69,West,277,0.4,0.4,69,0.00,,,0.00,WUHU216HW,2013-09-22 21:19:00,
2013-09-22 17:24:00,58.7,48.5,29.67,North,350,1.2,1.6,69,0.00,,,0.00,WUHU216HW,2013-09-22 21:24:00,
2013-09-22 17:29:00,59.2,48.6,29.69,East,83,1.4,2.5,67,0.00,,,0.00,WUHU216HW,2013-09-22 21:29:00,
2013-09-22 17:34:00,59.2,48.6,29.67,ESE,116,0.5,1.8,67,0.00,,,0.00,WUHU216HW,2013-09-22 21:34:00,
2013-09-22 17:39:00,59.8,49.6,29.69,NNW,334,0.5,0.7,69,0.00,,,0.00,WUHU216HW,2013-09-22 21:39:00,
2013-09-22 17:44:00,60.1,49.4,29.68,NW,310,0.6,2.2,67,0.00,,,0.00,WUHU216HW,2013-09-22 21:44:00,
2013-09-22 17:49:00,59.8,48.7,29.69,NNW,338,0.4,0.4,66,0.00,,,0.00,WUHU216HW,2013-09-22 21:49:00,
2013-09-22 17:54:00,59.4,48.8,29.68,NNE,18,0.9,1.1,67,0.00,,,0.00,WUHU216HW,2013-09-22 21:54:00,
2013-09-22 17:59:00,59.4,48.8,29.69,NE,45,0.3,0.7,67,0.00,,,0.00,WUHU216HW,2013-09-22 21:59:00,
2013-09-22 18:04:00,59.2,49.0,29.69,West,270,1.4,1.8,69,0.00,,,0.00,WUHU216HW,2013-09-22 22:04:00,
2013-09-22 18:09:00,59.2,49.0,29.68,WSW,245,2.9,3.4,69,0.00,,,0.00,WUHU216HW,2013-09-22 22:09:00,
2013-09-22 18:14:00,58.7,48.1,29.69,North,0,0.0,0.0,67,0.00,,,0.00,WUHU216HW,2013-09-22 22:14:00,
2013-09-22 18:19:00,58.1,47.5,29.68,West,270,0.2,0.4,67,0.00,,,0.00,WUHU216HW,2013-09-22 22:19:00,
2013-09-22 18:24:00,57.6,47.5,29.70,WNW,295,0.6,1.3,69,0.00,,,0.00,WUHU216HW,2013-09-22 22:24:00,
2013-09-22 18:29:00,57.2,47.1,29.68,West,273,2.1,3.6,69,0.00,,,0.00,WUHU216HW,2013-09-22 22:29:00,
2013-09-22 18:34:00,57.1,47.0,29.70,WSW,248,1.1,1.1,69,0.00,,,0.00,WUHU216HW,2013-09-22 22:34:00,
2013-09-22 18:39:00,56.7,46.6,29.68,North,0,1.0,1.3,69,0.00,,,0.00,WUHU216HW,2013-09-22 22:39:00,
2013-09-22 18:45:00,56.2,46.5,29.70,West,267,1.7,2.2,70,0.00,,,0.00,WUHU216HW,2013-09-22 22:45:00,
2013-09-22 18:50:00,55.6,46.4,29.71,WNW,293,0.4,0.7,71,0.00,,,0.00,WUHU216HW,2013-09-22 22:50:00,
2013-09-22 18:55:00,55.1,46.3,29.69,North,0,0.0,0.0,72,0.00,,,0.00,WUHU216HW,2013-09-22 22:55:00,
2013-09-22 19:00:00,54.5,45.7,29.71,SSW,203,0.1,0.2,72,0.00,,,0.00,WUHU216HW,2013-09-22 23:00:00,
2013-09-22 19:05:00,54.4,46.0,29.70,North,0,0.0,0.0,73,0.00,,,0.00,WUHU216HW,2013-09-22 23:05:00,
2013-09-22 19:10:00,54.0,45.7,29.71,WSW,248,0.1,0.4,73,0.00,,,0.00,WUHU216HW,2013-09-22 23:10:00,
2013-09-22 19:16:00,53.8,45.9,29.69,North,0,0.0,0.0,74,0.00,,,0.00,WUHU216HW,2013-09-22 23:16:00,
2013-09-22 19:21:00,53.6,46.1,29.70,North,0,0.0,0.0,75,0.00,,,0.00,WUHU216HW,2013-09-22 23:21:00,
2013-09-22 19:26:00,53.6,46.4,29.71,North,0,0.0,0.0,76,0.00,,,0.00,WUHU216HW,2013-09-22 23:26:00,
2013-09-22 19:31:00,53.3,46.5,29.67,North,0,0.0,0.0,78,0.00,,,0.00,WUHU216HW,2013-09-22 23:31:00,
2013-09-22 19:36:00,53.1,46.3,29.71,North,0,0.0,0.0,78,0.00,,,0.00,WUHU216HW,2013-09-22 23:36:00,
2013-09-22 19:41:00,52.7,46.3,29.70,North,0,0.0,0.0,79,0.00,,,0.00,WUHU216HW,2013-09-22 23:41:00,
2013-09-22 19:46:00,52.4,46.0,29.68,North,0,0.0,0.0,79,0.00,,,0.00,WUHU216HW,2013-09-22 23:46:00,
2013-09-22 19:51:00,52.2,46.2,29.70,North,0,0.0,0.0,80,0.00,,,0.00,WUHU216HW,2013-09-22 23:51:00,
2013-09-22 19:56:00,52.0,46.4,29.70,North,0,0.0,0.0,81,0.00,,,0.00,WUHU216HW,2013-09-22 23:56:00,
2013-09-22 20:01:00,51.8,45.8,29.70,North,0,0.0,0.0,80,0.00,,,0.00,WUHU216HW,2013-09-23 00:01:00,
2013-09-22 20:06:00,51.5,45.9,29.70,North,0,0.0,0.0,81,0.00,,,0.00,WUHU216HW,2013-09-23 00:06:00,
2013-09-22 20:11:00,51.1,45.5,29.69,North,0,0.0,0.0,81,0.00,,,0.00,WUHU216HW,2013-09-23 00:11:00,
2013-09-22 20:16:00,50.9,45.3,29.68,North,0,0.0,0.0,81,0.00,,,0.00,WUHU216HW,2013-09-23 00:16:00,
2013-09-22 20:21:00,50.8,45.5,29.70,North,0,0.0,0.0,82,0.00,,,0.00,WUHU216HW,2013-09-23 00:21:00,
2013-09-22 20:26:00,50.8,45.9,29.68,North,0,0.0,0.0,83,0.00,,,0.00,WUHU216HW,2013-09-23 00:26:00,
2013-09-22 20:31:00,50.4,45.5,29.70,North,0,0.0,0.0,83,0.00,,,0.00,WUHU216HW,2013-09-23 00:31:00,
2013-09-22 20:36:00,50.2,45.3,29.69,North,0,0.0,0.0,83,0.00,,,0.00,WUHU216HW,2013-09-23 00:36:00,
2013-09-22 20:41:00,49.9,45.3,29.71,North,0,0.0,0.0,84,0.00,,,0.00,WUHU216HW,2013-09-23 00:41:00,
2013-09-22 20:46:00,49.5,45.0,29.69,North,0,0.0,0.0,84,0.00,,,0.00,WUHU216HW,2013-09-23 00:46:00,
2013-09-22 20:52:00,49.1,44.6,29.70,North,0,0.0,0.0,84,0.00,,,0.00,WUHU216HW,2013-09-23 00:52:00,
2013-09-22 20:57:00,49.0,44.8,29.70,North,0,0.0,0.0,85,0.00,,,0.00,WUHU216HW,2013-09-23 00:57:00,
2013-09-22 21:02:00,48.8,44.9,29.71,North,0,0.0,0.0,87,0.00,,,0.00,WUHU216HW,2013-09-23 01:02:00,
2013-09-22 21:07:00,48.6,44.7,29.71,North,0,0.0,0.0,87,0.00,,,0.00,WUHU216HW,2013-09-23 01:07:00,
2013-09-22 21:12:00,48.2,44.4,29.70,North,0,0.0,0.0,87,0.00,,,0.00,WUHU216HW,2013-09-23 01:12:00,
2013-09-22 21:17:00,47.9,44.4,29.71,North,0,0.0,0.0,88,0.00,,,0.00,WUHU216HW,2013-09-23 01:17:00,
2013-09-22 21:22:00,47.7,44.2,29.70,North,0,0.0,0.0,88,0.00,,,0.00,WUHU216HW,2013-09-23 01:22:00,
2013-09-22 21:27:00,47.3,43.8,29.72,North,0,0.0,0.0,88,0.00,,,0.00,WUHU216HW,2013-09-23 01:27:00,
2013-09-22 21:32:00,47.0,43.5,29.72,North,0,0.0,0.0,88,0.00,,,0.00,WUHU216HW,2013-09-23 01:32:00,
2013-09-22 21:37:00,46.6,42.8,29.71,North,0,0.0,0.0,87,0.00,,,0.00,WUHU216HW,2013-09-23 01:37:00,
2013-09-22 21:42:00,46.3,42.8,29.72,North,0,0.0,0.0,88,0.00,,,0.00,WUHU216HW,2013-09-23 01:42:00,
2013-09-22 21:47:00,45.7,42.2,29.71,North,0,0.0,0.0,88,0.00,,,0.00,WUHU216HW,2013-09-23 01:47:00,
2013-09-22 21:52:00,45.4,41.9,29.73,North,0,0.0,0.0,88,0.00,,,0.00,WUHU216HW,2013-09-23 01:52:00,
2013-09-22 21:57:00,45.0,41.9,29.71,North,0,0.0,0.0,89,0.00,,,0.00,WUHU216HW,2013-09-23 01:57:00,
2013-09-22 22:03:00,44.6,41.5,29.72,North,0,0.0,0.0,89,0.00,,,0.00,WUHU216HW,2013-09-23 02:03:00,
2013-09-22 22:08:00,44.3,41.5,29.70,North,0,0.0,0.0,90,0.00,,,0.00,WUHU216HW,2013-09-23 02:08:00,
2013-09-22 22:13:00,43.9,41.1,29.72,North,0,0.0,0.0,90,0.00,,,0.00,WUHU216HW,2013-09-23 02:13:00,
2013-09-22 22:18:00,43.6,41.1,29.73,North,0,0.0,0.0,91,0.00,,,0.00,WUHU216HW,2013-09-23 02:18:00,
2013-09-22 22:23:00,43.2,40.7,29.72,North,0,0.0,0.0,91,0.00,,,0.00,WUHU216HW,2013-09-23 02:23:00,
2013-09-22 22:28:00,42.8,40.3,29.73,North,0,0.0,0.0,91,0.00,,,0.00,WUHU216HW,2013-09-23 02:28:00,
2013-09-22 22:33:00,42.7,40.2,29.71,North,0,0.0,0.0,91,0.00,,,0.00,WUHU216HW,2013-09-23 02:33:00,
2013-09-22 22:38:00,42.3,39.8,29.73,North,0,0.0,0.0,91,0.00,,,0.00,WUHU216HW,2013-09-23 02:38:00,
2013-09-22 22:43:00,42.1,39.9,29.72,North,0,0.0,0.0,92,0.00,,,0.00,WUHU216HW,2013-09-23 02:43:00,
2013-09-22 22:48:00,41.9,39.7,29.73,North,0,0.0,0.0,92,0.00,,,0.00,WUHU216HW,2013-09-23 02:48:00,
2013-09-22 22:53:00,41.6,39.4,29.72,North,0,0.0,0.0,92,0.00,,,0.00,WUHU216HW,2013-09-23 02:53:00,
2013-09-22 22:59:00,41.4,39.3,29.72,North,0,0.0,0.0,92,0.00,,,0.00,WUHU216HW,2013-09-23 02:59:00,
2013-09-22 23:04:00,41.2,39.1,29.74,North,0,0.0,0.0,92,0.00,,,0.00,WUHU216HW,2013-09-23 03:04:00,
2013-09-22 23:09:00,41.0,38.9,29.72,North,0,0.0,0.0,92,0.00,,,0.00,WUHU216HW,2013-09-23 03:09:00,
2013-09-22 23:14:00,40.9,39.1,29.74,North,0,0.0,0.0,93,0.00,,,0.00,WUHU216HW,2013-09-23 03:14:00,
2013-09-22 23:19:00,40.5,38.7,29.72,North,0,0.0,0.0,93,0.00,,,0.00,WUHU216HW,2013-09-23 03:19:00,
2013-09-22 23:24:00,40.3,38.5,29.74,North,0,0.0,0.0,93,0.00,,,0.00,WUHU216HW,2013-09-23 03:24:00,
2013-09-22 23:29:00,40.0,38.2,29.74,North,0,0.0,0.0,93,0.00,,,0.00,WUHU216HW,2013-09-23 03:29:00,
2013-09-22 23:34:00,40.0,38.2,29.73,North,0,0.0,0.0,93,0.00,,,0.00,WUHU216HW,2013-09-23 03:34:00,
2013-09-22 23:39:00,40.0,38.5,29.74,NE,45,0.3,0.4,94,0.00,,,0.00,WUHU216HW,2013-09-23 03:39:00,
2013-09-22 23:44:00,39.6,38.1,29.73,North,0,0.0,0.0,94,0.00,,,0.00,WUHU216HW,2013-09-23 03:44:00,
2013-09-22 23:49:00,39.4,37.9,29.75,North,0,0.0,0.0,94,0.00,,,0.00,WUHU216HW,2013-09-23 03:49:00,
2013-09-22 23:54:00,39.2,37.7,29.73,North,0,0.0,0.0,94,0.00,,,0.00,WUHU216HW,2013-09-23 03:54:00,
2013-09-22 23:59:00,39.2,37.7,29.75,North,0,0.0,0.0,94,0.00,,,0.00,WUHU216HW,2013-09-23 03:59:00,